Regional Weather Roundup
Issued by NWS

Home | Current Version | Previous Version | Graphics & Text | Print | Product List | Glossary On
Versions: 1 2 3 4 5 6 7 8 9 10 11 12 13 14 15 16 17 18 19 20 21 22 23 24 25 26 27 28 29 30 31 32 33 34 35 36 37 38 39 40 41 42 43 44 45 46 47 48 49 50
000
ASUS45 KCYS 232310
RWRWY

WYOMING REGIONAL WEATHER ROUNDUP
NATIONAL WEATHER SERVICE CHEYENNE WY
400 PM MST THU NOV 23 2017

NOTE:  "FAIR" INDICATES FEW OR NO CLOUDS BELOW 12,000 FEET
WITH NO SIGNIFICANT WEATHER AND/OR OBSTRUCTIONS TO VISIBILITY.

WYZ001-240000-
YELLOWSTONE NATIONAL PARK

CITY           SKY/WX    TMP DP  RH WIND       PRES   REMARKS
LK YELLOWSTONE   N/A     42  35  76 W13G21    30.08F
W YELLOWSTONE  NOT AVBL

$$
WYZ002>013-054>058-071-098>099-240000-
NORTHERN WYOMING

CITY           SKY/WX    TMP DP  RH WIND       PRES   REMARKS
JACKSON        CLOUDY    53  35  50 S14       30.10
CODY           FAIR      62  32  32 W20G32    29.84F
GREYBULL       FAIR      47  38  71 SE3       29.83F
WORLAND        FAIR      47  40  76 S6        29.85F
SHERIDAN       FAIR      65  33  30 N6        29.76F
BUFFALO        FAIR      57  30  35 W9        29.83S
GILLETTE       FAIR      60  33  36 SW18      29.80F
HULETT         FAIR      55  34  44 S12       29.80F
NEWCASTLE      FAIR      54  32  43 E10       29.84F

$$
WYZ014>020-022>026-101>103-240000-
CENTRAL WYOMING

CITY           SKY/WX    TMP DP  RH WIND       PRES   REMARKS
BIG PINEY      MOCLDY    53  35  50 NW12      30.14F
PINEDALE       CLOUDY    45  36  70 CALM      30.16F
DUBOIS         MOCLDY    50  32  50 NW13G24   30.06S
LANDER         FAIR      62  30  29 W17       29.96R
RIVERTON       FAIR      58  34  40 W7        29.97S
CASPER         FAIR      57  36  45 SW17      29.96F
DOUGLAS        FAIR      62  38  40 W29G36    29.88F

$$
WYZ021-027>030-104>119-240000-
SOUTHERN WYOMING

CITY           SKY/WX    TMP DP  RH WIND       PRES   REMARKS
EVANSTON       FAIR      55  34  45 SW18      30.22S
KEMMERER       FAIR      50  34  53 W18G24    30.18S
FORT BRIDGER   FAIR      56  34  44 W17G24    30.22S
ROCK SPRINGS   FAIR      57  33  40 W23G30    30.16F
DIXON          FAIR      56  33  42 SW13      30.20F
RAWLINS        FAIR      54  37  52 SW22      30.12F
SARATOGA       FAIR      54  32  43 SW13G22   30.17S
LARAMIE        FAIR      55  27  34 SW23      30.11R
CHEYENNE       FAIR      60  31  33 W18G31    30.03F
TORRINGTON     FAIR      65  38  36 W16       29.89S
PINE BLUFFS    FAIR      61  28  29 SW10      29.98S

$$



USA.gov is the U.S. government's official web portal to all federal, state and local government web resources and services.